CW5709 Weather Reports


Display with metric or nautical units.
time (UTC)temp
F
wind
direction
speed
MPH
gust
MPH
rain 1hr
in
rain 24hr
in
rain mn
in
humidity
%
barometer
mb
20200409045134 53 344 0.0 1.0 0.00 0.00 0.00 68 1017.2
20200409044138 54 344 0.0 1.0 0.00 0.00 0.00 68 1017.2
20200409043145 54 344 0.0 1.0 0.00 0.00 0.00 66 1017.1
20200409042130 55 344 0.0 1.0 0.00 0.00 0.00 64 1016.9
20200409041208 56 344 0.0 0.0 0.00 0.00 0.00 62 1016.7
20200409040143 57 344 0.0 2.0 0.00 0.00 0.00 60 1016.6
20200409035128 58 344 0.0 0.0 0.00 0.00 0.00 59 1016.6
20200409034134 59 344 0.0 0.0 0.00 0.00 0.00 57 1016.6
20200409033139 60 344 0.0 0.0 0.00 0.00 0.00 55 1016.5
20200409032129 61 344 0.0 1.0 0.00 0.00 0.00 53 1016.5
20200409031138 62 344 0.0 1.0 0.00 0.00 0.00 50 1016.5
20200409030144 64 344 0.0 0.0 0.00 0.00 0.00 48 1016.3
20200409025135 65 344 0.0 0.0 0.00 0.00 0.00 45 1016.3
20200409024142 66 344 0.0 0.0 0.00 0.00 0.00 44 1016.3
20200409023129 66 344 0.0 4.0 0.00 0.00 0.00 41 1016.4
20200409022136 67 333 1.0 3.0 0.00 0.00 0.00 41 1016.3
20200409021144 67 324 1.0 7.0 0.00 0.00 0.00 40 1016.4
20200409020135 68 23 3.0 11.0 0.00 0.00 0.00 41 1016.5
20200409015142 68 348 4.0 6.0 0.00 0.00 0.00 40 1016.5
20200409014129 69 19 4.0 10.0 0.00 0.00 0.00 40 1016.5
20200409013138 69 19 4.0 13.0 0.00 0.00 0.00 39 1016.6
20200409012145 69 22 3.0 10.0 0.00 0.00 0.00 39 1016.6
20200409011132 70 9 6.0 15.0 0.00 0.00 0.00 38 1016.6
20200409010141 70 360 2.0 12.0 0.00 0.00 0.00 36 1016.7
20200409005132 70 9 2.0 12.0 0.00 0.00 0.00 38 1016.7
20200409004139 70 350 5.0 11.0 0.00 0.00 0.00 37 1016.7
20200409003148 70 315 5.0 12.0 0.00 0.00 0.00 38 1016.8
20200409002135 70 25 5.0 11.0 0.00 0.00 0.00 38 1016.8
20200409001143 70 31 6.0 9.0 0.00 0.00 0.00 38 1016.9
20200409000133 70 9 4.0 13.0 0.00 0.00 0.00 39 1017.1
20200408235142 70 39 5.0 9.0 0.00 0.00 0.00 40 1017.2
20200408234129 70 342 6.0 12.0 0.00 0.00 0.00 38 1017.3
20200408233135 71 360 7.0 14.0 0.00 0.00 0.00 38 1017.4
20200408232143 71 11 2.0 16.0 0.00 0.00 0.00 37 1017.5
20200408231129 72 76 6.0 14.0 0.00 0.00 0.00 39 1017.5
20200408230140 72 48 3.0 10.0 0.00 0.00 0.00 39 1017.6
20200408225128 71 69 6.0 9.0 0.00 0.00 0.00 41 1017.6
20200408224137 71 69 8.0 10.0 0.00 0.00 0.00 40 1017.7
20200408223144 71 19 5.0 9.0 0.00 0.00 0.00 42 1017.8
20200408222130 70 102 4.0 11.0 0.00 0.00 0.00 40 1017.8
20200408221138 71 71 6.0 15.0 0.00 0.00 0.00 41 1018.0
20200408220145 71 70 6.0 10.0 0.00 0.00 0.00 39 1018.1
20200408215152 70 78 4.0 9.0 0.00 0.00 0.00 41 1018.3
20200408214142 69 80 4.0 10.0 0.00 0.00 0.00 41 1018.4
20200408213129 68 91 6.0 11.0 0.00 0.00 0.00 43 1018.7
20200408212136 68 71 7.0 11.0 0.00 0.00 0.00 44 1018.8
20200408211143 67 90 9.0 12.0 0.00 0.00 0.00 44 1018.9
20200408210135 67 92 4.0 9.0 0.00 0.00 0.00 47 1019.1
20200408205143 66 93 2.0 13.0 0.00 0.00 0.00 47 1019.3
20200408204131 66 84 4.0 12.0 0.00 0.00 0.00 44 1019.5
20200408203138 66 86 4.0 12.0 0.00 0.00 0.00 47 1019.5
20200408202147 66 59 4.0 11.0 0.00 0.00 0.00 45 1019.8
20200408201134 66 96 3.0 10.0 0.00 0.00 0.00 48 1019.8
20200408200145 65 83 5.0 11.0 0.00 0.00 0.00 47 1020.0
20200408195132 64 68 4.0 9.0 0.00 0.00 0.00 49 1020.2
20200408194140 64 40 0.0 9.0 0.00 0.00 0.00 49 1020.3
20200408193147 63 78 4.0 10.0 0.00 0.00 0.00 49 1020.6
20200408192134 63 360 3.0 12.0 0.00 0.00 0.00 47 1020.7
20200408191139 62 38 4.0 10.0 0.00 0.00 0.00 49 1021.0
20200408190127 62 360 7.0 12.0 0.00 0.00 0.00 48 1021.2
20200408185135 61 42 4.0 11.0 0.00 0.00 0.00 49 1021.3
20200408184140 60 94 0.0 11.0 0.00 0.00 0.00 53 1021.3
20200408183147 59 40 4.0 14.0 0.00 0.00 0.00 51 1021.4
20200408182132 58 65 5.0 11.0 0.00 0.00 0.00 54 1021.5
20200408181138 57 109 4.0 12.0 0.00 0.00 0.00 55 1021.7
20200408180148 56 98 5.0 12.0 0.00 0.00 0.00 55 1021.9
20200408175131 55 26 9.0 11.0 0.00 0.00 0.00 57 1021.9
20200408174136 54 57 5.0 12.0 0.00 0.00 0.00 59 1021.9
20200408173142 54 13 4.0 15.0 0.00 0.00 0.00 60 1022.0
20200408172147 53 12 4.0 10.0 0.00 0.00 0.00 64 1022.0
20200408171132 52 75 2.0 12.0 0.00 0.00 0.00 64 1022.0
20200408170144 51 56 5.0 10.0 0.00 0.00 0.00 67 1022.1
20200408165129 50 340 0.0 7.0 0.00 0.00 0.00 71 1022.0
20200408164134 50 90 6.0 11.0 0.00 0.00 0.00 73 1022.1
20200408163139 49 61 4.0 6.0 0.00 0.00 0.00 76 1022.1
20200408162144 48 77 4.0 8.0 0.00 0.00 0.00 78 1022.0
20200408161127 47 71 4.0 10.0 0.00 0.00 0.00 83 1022.0
20200408160139 45 83 8.0 10.0 0.00 0.00 0.00 91 1021.9
20200408155144 44 103 2.0 7.0 0.00 0.00 0.00 96 1022.0
20200408154128 42 84 0.0 4.0 0.00 0.00 0.00 95 1021.9
20200408153135 41 294 0.0 0.0 0.00 0.00 0.00 95 1022.0
20200408152139 40 294 0.0 0.0 0.00 0.00 0.00 94 1022.2
20200408151129 39 294 0.0 0.0 0.00 0.00 0.00 94 1022.2
20200408150137 38 294 0.0 0.0 0.00 0.00 0.00 94 1022.1
20200408145128 38 294 0.0 0.0 0.00 0.00 0.00 93 1022.4
20200408144136 37 294 0.0 0.0 0.00 0.00 0.00 93 1022.1
20200408143211 37 294 0.0 1.0 0.00 0.00 0.00 93 1022.2
20200408142146 36 294 0.0 1.0 0.00 0.00 0.00 92 1021.9
20200408141132 36 294 0.0 0.0 0.00 0.00 0.00 92 1021.8
20200408140142 36 294 0.0 0.0 0.00 0.00 0.00 91 1021.9
20200408135128 36 294 0.0 0.0 0.00 0.00 0.00 91 1022.0
20200408134135 36 294 0.0 0.0 0.00 0.00 0.00 91 1021.9
20200408133142 36 269 0.0 1.0 0.00 0.00 0.00 91 1021.9
20200408132147 36 9 0.0 0.0 0.00 0.00 0.00 91 1021.8
20200408131133 36 9 0.0 0.0 0.00 0.00 0.00 91 1021.7
20200408130153 37 9 0.0 0.0 0.00 0.00 0.00 91 1021.5
20200408125129 37 9 0.0 0.0 0.00 0.00 0.00 91 1021.6
20200408124134 37 9 0.0 0.0 0.00 0.00 0.00 91 1021.4
20200408123141 37 9 0.0 1.0 0.00 0.00 0.00 90 1021.5
20200408122147 37 9 0.0 2.0 0.00 0.00 0.00 90 1021.4
20200408121133 37 9 0.0 0.0 0.00 0.00 0.00 90 1021.4
20200408120142 38 9 0.0 0.0 0.00 0.00 0.00 90 1021.5
20200408115128 38 9 0.0 0.0 0.00 0.00 0.00 90 1021.5
20200408114137 38 9 0.0 0.0 0.00 0.00 0.00 90 1021.5
20200408113142 38 9 0.0 0.0 0.00 0.00 0.00 90 1021.5
20200408112127 39 9 0.0 3.0 0.00 0.00 0.00 91 1021.5
20200408111135 39 9 1.0 2.0 0.00 0.00 0.00 91 1021.6
20200408110145 39 9 0.0 2.0 0.00 0.00 0.00 91 1021.5
20200408105134 39 9 2.0 2.0 0.00 0.00 0.00 91 1021.5
20200408104140 39 9 1.0 2.0 0.00 0.00 0.00 90 1021.4
20200408103128 39 9 1.0 2.0 0.00 0.00 0.00 90 1021.4
20200408102137 40 9 1.0 2.0 0.00 0.00 0.00 89 1021.5
20200408101144 40 9 0.0 1.0 0.00 0.00 0.00 89 1021.6
20200408100136 40 9 0.0 0.0 0.00 0.00 0.00 89 1021.6
20200408095144 40 9 0.0 2.0 0.00 0.00 0.00 89 1021.6
20200408094132 41 9 2.0 3.0 0.00 0.00 0.00 89 1021.6
20200408093138 41 9 0.0 1.0 0.00 0.00 0.00 89 1021.6
20200408092128 41 9 0.0 2.0 0.00 0.00 0.00 89 1021.6
20200408091137 41 9 2.0 3.0 0.00 0.00 0.00 89 1021.5
20200408090145 42 9 1.0 2.0 0.00 0.00 0.00 88 1021.6
20200408085133 42 9 1.0 2.0 0.00 0.00 0.00 88 1021.5
20200408084140 42 9 1.0 2.0 0.00 0.00 0.00 88 1021.5
20200408083129 42 9 0.0 2.0 0.00 0.00 0.00 88 1021.5
20200408082135 42 9 0.0 0.0 0.00 0.00 0.00 88 1021.6
20200408081143 42 9 0.0 2.0 0.00 0.00 0.00 88 1021.6
20200408080136 43 9 0.0 2.0 0.00 0.00 0.00 87 1021.6
20200408075142 43 9 1.0 2.0 0.00 0.00 0.00 86 1021.5
20200408074128 43 9 0.0 2.0 0.00 0.00 0.00 86 1021.5
20200408073135 44 9 0.0 1.0 0.00 0.00 0.00 86 1021.5
20200408072141 44 9 0.0 1.0 0.00 0.00 0.00 86 1021.6
20200408071128 44 9 0.0 2.0 0.00 0.00 0.00 86 1021.4
20200408070133 44 9 0.0 0.0 0.00 0.00 0.00 85 1021.5
20200408065139 45 9 0.0 0.0 0.00 0.00 0.00 85 1021.4
20200408064145 45 9 0.0 1.0 0.00 0.00 0.00 85 1021.4
20200408063131 45 9 0.0 0.0 0.00 0.00 0.00 84 1021.4
20200408062137 45 9 0.0 1.0 0.00 0.00 0.00 84 1021.4
20200408061144 46 9 0.0 0.0 0.00 0.00 0.00 84 1021.3
20200408060134 46 9 0.0 0.0 0.00 0.00 0.00 83 1021.2
20200408055138 46 9 0.0 0.0 0.00 0.00 0.00 82 1021.2
20200408054144 47 9 0.0 1.0 0.00 0.00 0.00 81 1021.1
20200408053129 47 9 0.0 1.0 0.00 0.00 0.00 81 1021.1
20200408052134 47 9 0.0 1.0 0.00 0.00 0.00 80 1021.1
20200408051142 48 9 0.0 1.0 0.00 0.00 0.00 79 1021.1
20200408050134 48 9 1.0 2.0 0.00 0.00 0.00 78 1021.1